P/2019 V2 ( Groeller )

Japanese version
Home page
Updated on June 14, 2021

---------------------------------------------------------------------

* Profile

Discovery Date November 3, 2019
Magnitude 20.7 mag
Discoverer Hannes Groeller (Mount Lemmon Survey)

* Pictures

* Orbital Elements

Epoch 2020 Nov. 7.0 TT = JDT 2459160.5
T 2020 Oct. 20.06502 TT                                 Rudenko
q   5.0206752            (2000.0)            P               Q
n   0.04781642     Peri.  336.03355     -0.96552078     -0.25827213
a   7.5176943      Node   189.18162     +0.25940233     -0.94395293
e   0.3321523      Incl.   11.80223     +0.02191022     -0.20554407
P  20.6
From 77 observations 2019 Nov. 3-2021 Apr. 6, mean residual 0".4.

* Magnitudes Graph

        m1 = 9.5 + 5 log d + 10.0 log r

---------------------------------------------------------------------

The orbital elements are published on M.P.E.C. 2021-J28.
The magnitudes graphs are made with Comet for Windows.

---------------------------------------------------------------------

Copyright(C) Seiichi Yoshida (comet@aerith.net). All rights reserved.